Regional Weather Roundup
Issued by NWS

Home | Current Version | Previous Version | Graphics & Text | Print | Product List | Glossary On
Versions: 1 2 3 4 5 6 7 8 9 10 11 12 13 14 15 16 17 18 19 20 21 22 23 24 25 26 27 28 29 30 31 32 33 34 35 36 37 38 39 40 41 42 43 44 45 46 47 48 49 50
000
ASUS43 KFSD 201710
RWRSD

WEATHER ROUNDUP FOR SOUTH DAKOTA
NATIONAL WEATHER SERVICE SIOUX FALLS SD
1100 AM CST SAT JAN 20 2018

NOTE: "FAIR" INDICATES FEW OR NO CLOUDS BELOW 12,000 FEET WITH NO
SIGNIFICANT WEATHER AND/OR OBSTRUCTIONS TO VISIBILITY.


SDZ001>005-009-010-012>017-201800-
NORTHWEST AND NORTH CENTRAL SOUTH DAKOTA

CITY           SKY/WX    TMP DP  RH WIND       PRES   REMARKS
BUFFALO          N/A     35  29  78 W7        29.84R WCI  29
FAITH            N/A     35  34  96 NW10      29.90R WCI  27
MOBRIDGE       CLOUDY    41  34  76 CALM      29.87R
$$

SDZ012>016-024>037-041>051-057-063-072>074-201800-
SOUTHWEST AND SOUTH CENTRAL SOUTH DAKOTA

CITY           SKY/WX    TMP DP  RH WIND       PRES   REMARKS
RAPID CTY ARPT CLOUDY    36  30  79 N6        29.92R
PIERRE         CLOUDY    39  36  89 NW8       29.91R
CUSTER         FLURRIES  30  21  69 NE5       29.86S WCI  25
ELLSWORTH AFB  CLOUDY    35  31  85 NW7       29.91R WCI  29
PHILIP         LGT RAIN  35  35 100 W5        29.93R
PINE RIDGE     CLOUDY    30  30 100 CALM      29.92R
SPEARFISH        N/A     34  28  80 CALM      29.91R
WINNER         FAIR      35  31  85 W5        29.93R
$$

SDZ004>011-016>023-039-040-201800-
NORTHEAST SOUTH DAKOTA

CITY           SKY/WX    TMP DP  RH WIND       PRES   REMARKS
ABERDEEN       CLOUDY    40  33  76 CALM      29.88S
WATERTOWN      CLOUDY    36  32  85 NW5       29.87R
BROOKINGS      CLOUDY    36  32  85 CALM      29.90R
SISSETON         N/A     43  30  60 NW9       29.87R
$$

SDZ017-020-022-023-036>040-048>070-201800-
SOUTHEAST SOUTH DAKOTA

CITY           SKY/WX    TMP DP  RH WIND       PRES   REMARKS
SIOUX FALLS    CLOUDY    38  33  82 CALM      29.91R
HURON          MOSUNNY   40  32  73 N3        29.91R
CHAMBERLAIN    PTSUNNY   34  33  97 CALM      29.92R
MITCHELL       MOSUNNY   33  30  88 SW3       29.94R
YANKTON        CLOUDY    35  31  85 NW5       29.91R
$$

ABBREVIATIONS USED IN REMARKS
   TC - TEMPERATURE IN CELSIUS
  WCI - WIND CHILL INDEX
   HX - HEAT INDEX
  VSB - VISIBILITY





USA.gov is the U.S. government's official web portal to all federal, state and local government web resources and services.